OE7DRT-13 Weather Reports


time (UTC)temp
C
wind
direction
speed
KPH
gust
KPH
rain 1hr
cm
rain 24hr
cm
rain mn
cm
humidity
%
barometer
mb
20260506174019 13 0 1.6 4.8 0.00 0.00 0.00 54 1006.6
20260506173517 13 21 1.6 6.4 0.00 0.00 0.00 54 1006.4
20260506173016 12 28 0.0 9.7 0.00 0.00 0.00 61 1006.5
20260506172534 12 38 0.0 1.6 0.00 0.00 0.00 64 1006.4
20260506172032 13 0.0 0.0 0.00 0.00 0.00 65 1006.4
20260506171530 13 0.0 0.0 0.00 0.00 0.00 63 1006.3
20260506171029 12 0.0 0.0 0.00 0.00 0.00 63 1006.3
20260506170527 13 0.0 0.0 0.00 0.00 0.00 62 1006.2
20260506170046 13 8 1.6 4.8 0.00 0.00 0.00 58 1006.2
20260506165524 13 189 0.0 3.2 0.00 0.00 0.00 55 1006.1
20260506165022 13 202 0.0 3.2 0.00 0.00 0.00 55 1006.1
20260506164520 13 0.0 0.0 0.00 0.00 0.00 56 1006.1
20260506164039 13 0.0 0.0 0.00 0.00 0.00 55 1006.2
20260506163537 14 0.0 0.0 0.00 0.00 0.00 55 1006.2
20260506163035 13 21 0.0 1.6 0.00 0.00 0.00 56 1006.3
20260506162533 14 338 3.2 6.4 0.00 0.00 0.00 56 1006.2
20260506162032 14 146 1.6 4.8 0.00 0.00 0.00 53 1006.2
20260506161530 14 329 1.6 4.8 0.00 0.00 0.00 52 1006.3
20260506161028 13 295 1.6 4.8 0.00 0.00 0.00 54 1006.2
20260506160526 13 168 1.6 4.8 0.00 0.00 0.00 55 1006.2
20260506160025 13 183 1.6 4.8 0.00 0.00 0.00 58 1006.3
20260506155523 13 176 1.6 3.2 0.00 0.00 0.00 59 1006.2
20260506155021 13 183 3.2 6.4 0.00 0.00 0.00 59 1006.2
20260506154519 13 188 3.2 4.8 0.00 0.00 0.00 59 1006.2
20260506154018 13 189 1.6 4.8 0.00 0.00 0.00 58 1006.2
20260506153516 13 308 0.0 1.6 0.00 0.00 0.00 58 1006.2
20260506153034 13 359 1.6 4.8 0.00 0.00 0.00 57 1006.1
20260506152533 13 340 0.0 4.8 0.00 0.00 0.00 59 1006.2
20260506152031 13 147 0.0 1.6 0.00 0.00 0.00 58 1006.1
20260506151529 13 206 0.0 3.2 0.00 0.00 0.00 59 1006.1
20260506151028 13 172 1.6 4.8 0.00 0.00 0.00 59 1006.1
20260506150525 13 165 1.6 4.8 0.00 0.00 0.00 58 1006.2
20260506150044 13 169 0.0 3.2 0.00 0.00 0.00 58 1006.3
20260506145522 13 238 0.0 3.2 0.00 0.00 0.00 58 1006.2
20260506145020 13 222 1.6 4.8 0.00 0.00 0.00 56 1006.2
20260506144539 13 194 1.6 11.3 0.00 0.00 0.00 56 1006.1
20260506144017 13 221 3.2 12.9 0.00 0.00 0.00 57 1006.2
20260506143535 13 148 4.8 17.7 0.00 0.00 0.00 57 1006.2
20260506143034 13 159 4.8 12.9 0.00 0.00 0.00 56 1006.2
20260506142532 13 268 1.6 6.4 0.00 0.00 0.00 54 1006.1
20260506142050 14 352 8.0 14.5 0.00 0.00 0.00 50 1006.1
20260506141549 14 352 12.9 25.7 0.00 0.00 0.00 49 1006.1
20260506141027 14 5 16.1 29.0 0.00 0.00 0.00 49 1005.9
20260506140524 14 355 11.3 20.9 0.00 0.00 0.00 49 1005.8
20260506140023 15 23 14.5 29.0 0.00 0.00 0.00 48 1005.9
20260506135521 15 360 12.9 25.7 0.00 0.00 0.00 48 1005.8
20260506135019 15 7 12.9 25.7 0.00 0.00 0.00 47 1005.8
20260506134518 15 15 14.5 29.0 0.00 0.00 0.00 47 1005.8
20260506134056 14 354 11.3 22.5 0.00 0.00 0.00 47 1005.9
20260506133534 15 12 12.9 24.1 0.00 0.00 0.00 47 1006.1
20260506133033 15 10 12.9 24.1 0.00 0.00 0.00 47 1006.0
20260506132531 15 18 11.3 25.7 0.00 0.00 0.00 46 1005.9
20260506132030 15 4 11.3 20.9 0.00 0.00 0.00 46 1006.1
20260506131548 15 22 8.0 20.9 0.00 0.00 0.00 46 1005.9
20260506131026 15 33 9.7 25.7 0.00 0.00 0.00 47 1006.1
20260506130524 15 4 11.3 22.5 0.00 0.00 0.00 46 1006.2
20260506130022 15 1 12.9 25.7 0.00 0.00 0.00 44 1006.0
20260506125520 15 7 14.5 38.6 0.00 0.00 0.00 44 1005.8
20260506125039 16 360 12.9 27.4 0.00 0.00 0.00 44 1005.6
20260506124517 15 352 3.2 11.3 0.00 0.00 0.00 45 1005.8
20260506124016 15 6 11.3 30.6 0.00 0.00 0.00 44 1005.8
20260506123554 15 13 12.9 30.6 0.00 0.00 0.00 45 1005.8
20260506123052 16 23 16.1 29.0 0.00 0.00 0.00 44 1005.5
20260506122530 16 339 14.5 27.4 0.00 0.00 0.00 44 1005.6
20260506122028 16 10 9.7 22.5 0.00 0.00 0.00 44 1005.5
20260506121527 16 358 11.3 22.5 0.00 0.00 0.00 45 1005.4
20260506121025 15 7 12.9 30.6 0.00 0.00 0.00 46 1005.4
20260506120523 15 5 12.9 40.2 0.00 0.00 0.00 46 1005.6
20260506120041 15 2 14.5 29.0 0.00 0.00 0.00 47 1005.7
20260506115520 15 8 16.1 33.8 0.00 0.00 0.00 48 1005.5
20260506115018 15 18 11.3 22.5 0.00 0.00 0.00 50 1005.7
20260506114516 13 331 3.2 14.5 0.00 0.00 0.00 51 1005.9
20260506114055 13 357 8.0 17.7 0.00 0.00 0.00 54 1005.9
20260506113533 13 355 14.5 27.4 0.00 0.00 0.00 55 1005.9
20260506113031 13 0 9.7 17.7 0.00 0.00 0.00 52 1005.9
20260506112529 13 359 9.7 25.7 0.00 0.00 0.00 51 1005.8
20260506112028 13 353 12.9 22.5 0.00 0.00 0.00 51 1005.9
20260506111526 13 5 14.5 25.7 0.00 0.00 0.00 50 1005.9
20260506111024 13 2 8.0 17.7 0.00 0.00 0.00 50 1006.1
20260506110543 14 349 12.9 24.1 0.00 0.00 0.00 49 1006.0
20260506110020 13 10 4.8 20.9 0.00 0.00 0.00 50 1006.1
20260506105519 13 19 6.4 16.1 0.00 0.00 0.00 50 1006.2
20260506105017 13 11 6.4 20.9 0.00 0.00 0.00 50 1006.2
20260506104516 13 16 9.7 22.5 0.00 0.00 0.00 49 1006.3
20260506104034 13 26 12.9 20.9 0.00 0.00 0.00 49 1006.1
20260506103532 14 8 12.9 30.6 0.00 0.00 0.00 49 1006.1
20260506103030 14 15 16.1 27.4 0.00 0.00 0.00 49 1006.2
20260506102529 14 10 11.3 22.5 0.00 0.00 0.00 49 1006.5
20260506102047 13 6 12.9 27.4 0.00 0.00 0.00 49 1006.5
20260506101546 13 18 16.1 30.6 0.00 0.00 0.00 50 1006.5
20260506101024 13 18 16.1 30.6 0.00 0.00 0.00 50 1006.6
20260506100522 13 7 12.9 29.0 0.00 0.00 0.00 51 1006.6
20260506100020 13 11 17.7 33.8 0.00 0.00 0.00 52 1006.6
20260506095519 12 25 14.5 24.1 0.00 0.00 0.00 53 1006.6
20260506095016 12 24 16.1 29.0 0.00 0.00 0.00 54 1006.9
20260506094535 12 339 12.9 24.1 0.00 0.00 0.00 54 1006.9
20260506094033 12 17 14.5 25.7 0.00 0.00 0.00 55 1006.9
20260506093531 12 10 14.5 30.6 0.00 0.00 0.00 54 1006.8
20260506093029 12 4 11.3 30.6 0.00 0.00 0.00 57 1007.1
20260506092607 12 3 14.5 29.0 0.00 0.00 0.00 58 1007.3
20260506092026 11 340 3.2 11.3 0.00 0.00 0.00 59 1007.5
20260506091524 11 359 8.0 20.9 0.00 0.00 0.00 59 1007.5
20260506091022 11 13 11.3 27.4 0.00 0.00 0.00 56 1007.4
20260506090521 12 15 9.7 17.7 0.00 0.00 0.00 56 1007.3
20260506090019 12 6 12.9 25.7 0.00 0.00 0.00 57 1007.3
20260506085517 11 17 11.3 22.5 0.00 0.00 0.00 57 1007.2
20260506085015 11 28 4.8 16.1 0.00 0.00 0.00 58 1007.4
20260506084534 11 338 9.7 17.7 0.00 0.00 0.00 58 1007.5
20260506084032 12 352 8.0 22.5 0.00 0.00 0.00 57 1007.2
20260506083530 12 339 11.3 20.9 0.00 0.00 0.00 57 1007.1
20260506083028 12 348 4.8 22.5 0.00 0.00 0.00 56 1007.5
20260506082527 12 56 3.2 16.1 0.00 0.00 0.00 53 1007.6
20260506082105 12 355 4.8 17.7 0.00 0.00 0.00 52 1007.4
20260506081523 12 291 1.6 9.7 0.00 0.00 0.00 51 1007.5
20260506081021 12 12 3.2 11.3 0.00 0.00 0.00 51 1007.0
20260506080519 12 39 1.6 9.7 0.00 0.00 0.00 52 1006.8
20260506073028 10 0.0 0.0 0.00 0.00 0.00 69 1007.2
20260506072526 10 181 1.6 4.8 0.00 0.00 0.00 70 1007.4
20260506072044 10 318 1.6 3.2 0.00 0.00 0.00 68 1007.4
20260506071523 9 176 0.0 3.2 0.00 0.00 0.00 68 1007.3
20260506071021 9 34 0.0 1.6 0.00 0.00 0.00 69 1007.5
20260506070539 9 0.0 0.0 0.00 0.00 0.00 68 1007.5
20260506062044 8 338 0.0 1.6 0.00 0.00 0.00 74 1008.0
20260506061521 8 6 0.0 1.6 0.00 0.00 0.00 74 1008.0
20260506061020 7 0.0 0.0 0.00 0.00 0.00 76 1008.0
20260506060518 7 0.0 0.0 0.00 0.00 0.00 76 1007.9
20260506051019 6 0.0 0.0 0.00 0.00 0.00 79 1008.1
20260506050518 6 0.0 0.0 0.00 0.00 0.00 80 1008.1
20260506045032 6 0.0 0.0 0.00 0.00 0.00 80 1008.3
20260506044531 6 0.0 0.0 0.00 0.00 0.00 80 1008.3
20260506044029 5 232 0.0 1.6 0.00 0.00 0.00 81 1008.5
20260506043527 5 17 0.0 1.6 0.00 0.00 0.00 81 1008.5
20260506043046 5 352 0.0 1.6 0.00 0.00 0.00 80 1008.4
20260506042524 6 0.0 0.0 0.00 0.00 0.00 81 1008.5
20260506042022 6 352 0.0 3.2 0.00 0.00 0.00 80 1008.7
20260506041521 6 0.0 0.0 0.00 0.00 0.00 81 1008.7
20260506041019 6 0.0 0.0 0.00 0.00 0.00 81 1008.8
20260506040518 5 0.0 0.0 0.00 0.00 0.00 81 1008.9
20260506040016 5 166 0.0 1.6 0.00 0.00 0.00 81 1009.0
20260506035555 5 344 0.0 3.2 0.00 0.00 0.00 80 1008.8
20260506035032 5 322 0.0 4.8 0.00 0.00 0.00 81 1008.9
20260506034531 6 0.0 0.0 0.00 0.00 0.00 80 1008.8
20260506034029 5 0.0 0.0 0.00 0.00 0.00 81 1009.0
20260506033527 5 0.0 0.0 0.00 0.00 0.00 81 1009.0
20260506033026 6 0.0 0.0 0.00 0.00 0.00 81 1008.9
20260506032544 6 0.0 0.0 0.00 0.00 0.00 81 1009.0
20260506032023 6 0.0 0.0 0.00 0.00 0.00 81 1009.0
20260506031521 6 0.0 0.0 0.00 0.00 0.00 80 1009.0
20260506031019 6 0.0 0.0 0.00 0.00 0.00 80 1009.1
20260506030518 6 0.0 0.0 0.00 0.00 0.00 80 1009.1
20260506030016 6 0.0 0.0 0.00 0.00 0.00 79 1009.1
20260506025534 6 0.0 0.0 0.00 0.00 0.00 79 1009.1
20260506025033 6 0.0 0.0 0.00 0.00 0.00 80 1009.3
20260506024531 6 0.0 0.0 0.00 0.00 0.00 79 1009.2
20260506024029 6 0.0 0.0 0.00 0.00 0.00 79 1009.4
20260506023527 6 0.0 0.0 0.00 0.00 0.00 80 1009.6
20260506023026 6 0.0 0.0 0.00 0.00 0.00 79 1009.7
20260506022544 6 0.0 0.0 0.00 0.00 0.00 79 1009.7
20260506022023 6 0.0 0.0 0.00 0.00 0.00 78 1009.7
20260506021521 6 0.0 0.0 0.00 0.00 0.00 79 1009.9
20260506021019 6 0.0 0.0 0.00 0.00 0.00 78 1009.9
20260506020517 6 0.0 0.0 0.00 0.00 0.00 77 1009.8
20260506020015 6 320 0.0 1.6 0.00 0.00 0.00 76 1010.0
20260506015534 6 0.0 0.0 0.00 0.00 0.00 75 1010.0
20260506015032 6 0.0 0.0 0.00 0.00 0.00 74 1010.0
20260506014530 6 191 0.0 1.6 0.00 0.00 0.00 74 1010.2
20260506014029 6 201 0.0 1.6 0.00 0.00 0.00 74 1010.2
20260506013547 7 0.0 0.0 0.00 0.00 0.00 74 1010.1
20260506013025 7 0.0 0.0 0.00 0.00 0.00 73 1010.1
20260506012523 7 0.0 0.0 0.00 0.00 0.00 71 1009.9
20260506012042 7 214 0.0 3.2 0.00 0.00 0.00 70 1010.0
20260506011522 7 216 1.6 3.2 0.00 0.00 0.00 71 1009.7
20260506011019 7 0.0 0.0 0.00 0.00 0.00 71 1009.8
20260506010517 7 330 0.0 1.6 0.00 0.00 0.00 69 1009.9
20260506010035 7 192 0.0 3.2 0.00 0.00 0.00 70 1010.0
20260506005554 7 135 0.0 3.2 0.00 0.00 0.00 69 1010.0
20260506005032 7 185 0.0 1.6 0.00 0.00 0.00 69 1010.0
20260506004530 7 292 0.0 1.6 0.00 0.00 0.00 68 1010.0
20260506004028 7 0.0 0.0 0.00 0.00 0.00 68 1010.0
20260506003527 7 0.0 0.0 0.00 0.00 0.00 69 1010.0
20260506003025 7 0.0 0.0 0.00 0.00 0.00 68 1010.1
20260506002525 8 0.0 0.0 0.00 0.00 0.00 68 1010.2
20260506002023 8 237 0.0 3.2 0.00 0.00 0.00 67 1010.1
20260506001520 8 218 0.0 3.2 0.00 0.00 0.00 68 1010.0
20260506001039 8 247 0.0 4.8 0.00 0.00 0.00 67 1010.0
20260506000517 8 251 1.6 6.4 0.00 0.00 0.00 67 1010.0
20260506000035 8 226 0.0 3.2 0.00 0.00 0.00 67 1009.9
20260505235533 8 243 1.6 3.2 0.00 0.00 0.00 67 1009.9
20260505235032 8 245 0.0 3.2 0.00 0.00 0.00 68 1010.0
20260505234550 8 261 0.0 1.6 0.00 0.00 0.00 67 1010.1
20260505234028 8 225 0.0 1.6 0.00 0.00 0.00 68 1010.1
20260505233527 8 296 0.0 1.6 0.00 0.00 0.00 67 1010.2
20260505233025 8 0.0 0.0 0.00 0.00 0.00 66 1010.1
20260505232524 8 265 0.0 1.6 0.00 0.00 0.00 64 1010.2
20260505232042 9 258 0.0 1.6 0.00 0.00 0.00 64 1010.1
20260505231519 9 269 1.6 3.2 0.00 0.00 0.00 64 1010.1
20260505231018 9 248 1.6 4.8 0.00 0.00 0.00 64 1010.1
20260505230516 9 289 1.6 4.8 0.00 0.00 0.00 65 1010.1
20260505230034 8 236 1.6 3.2 0.00 0.00 0.00 66 1010.2
20260505225533 9 218 0.0 3.2 0.00 0.00 0.00 65 1010.2
20260505225031 8 247 1.6 4.8 0.00 0.00 0.00 66 1010.1
20260505224529 8 247 0.0 3.2 0.00 0.00 0.00 67 1010.3
20260505224028 8 0.0 0.0 0.00 0.00 0.00 68 1010.3
20260505223526 8 0.0 0.0 0.00 0.00 0.00 68 1010.2
20260505223045 9 0.0 0.0 0.00 0.00 0.00 67 1010.2
20260505222524 9 246 0.0 1.6 0.00 0.00 0.00 67 1010.1
20260505222021 9 0.0 0.0 0.00 0.00 0.00 67 1010.1
20260505221519 8 0.0 0.0 0.00 0.00 0.00 67 1010.1
20260505221018 8 0.0 0.0 0.00 0.00 0.00 70 1010.3
20260505220516 9 0.0 0.0 0.00 0.00 0.00 68 1010.2
20260505220034 9 0.0 0.0 0.00 0.00 0.00 66 1010.2
20260505215532 9 231 0.0 1.6 0.00 0.00 0.00 67 1010.1
20260505215031 9 215 0.0 1.6 0.00 0.00 0.00 67 1010.1
20260505214529 9 232 0.0 1.6 0.00 0.00 0.00 67 1010.1
20260505214027 10 0.0 0.0 0.00 0.00 0.00 66 1010.0
20260505213526 10 220 0.0 1.6 0.00 0.00 0.00 64 1009.9
20260505213024 10 0.0 0.0 0.00 0.00 0.00 65 1010.0
20260505212522 10 202 0.0 1.6 0.00 0.00 0.00 65 1010.0
20260505212020 10 26 0.0 1.6 0.00 0.00 0.00 64 1009.9
20260505211519 10 252 0.0 3.2 0.00 0.00 0.00 63 1009.9
20260505211017 10 0.0 0.0 0.00 0.00 0.00 64 1009.9
20260505210535 10 0.0 0.0 0.00 0.00 0.00 63 1009.8
20260505210034 10 219 0.0 3.2 0.00 0.00 0.00 64 1009.8
20260505205552 10 252 0.0 1.6 0.00 0.00 0.00 64 1009.8
20260505205030 10 195 0.0 1.6 0.00 0.00 0.00 65 1009.9
20260505204548 10 220 0.0 1.6 0.00 0.00 0.00 65 1009.8
20260505204028 10 0.0 0.0 0.00 0.00 0.00 65 1009.6
20260505203525 10 201 0.0 3.2 0.00 0.00 0.00 64 1009.6
20260505203023 10 202 1.6 3.2 0.00 0.00 0.00 65 1009.7
20260505202521 10 238 0.0 3.2 0.00 0.00 0.00 67 1009.6
20260505202020 10 0.0 0.0 0.00 0.00 0.00 67 1009.6
20260505201518 10 0.0 0.0 0.00 0.00 0.00 66 1009.7
20260505201018 10 210 0.0 3.2 0.00 0.00 0.00 65 1009.7
20260505200635 10 0.0 0.0 0.00 0.00 0.00 65 1009.5
20260505200053 10 0.0 0.0 0.00 0.00 0.00 66 1009.6
20260505195532 10 220 0.0 1.6 0.00 0.00 0.00 67 1009.6
20260505195030 10 0.0 0.0 0.00 0.00 0.00 67 1009.6
20260505194528 10 163 1.6 9.7 0.00 0.00 0.00 67 1009.5
20260505194026 11 16 0.0 4.8 0.00 0.00 0.00 66 1009.5
20260505193545 10 237 0.0 3.2 0.00 0.00 0.00 66 1009.4
20260505193023 10 41 0.0 1.6 0.00 0.00 0.00 67 1009.3
20260505192542 10 59 0.0 1.6 0.00 0.00 0.00 67 1009.3
20260505192019 11 167 0.0 1.6 0.00 0.00 0.00 66 1009.2
20260505191518 11 0.0 0.0 0.00 0.00 0.00 66 1009.1
20260505191016 11 15 0.0 4.8 0.00 0.00 0.00 66 1009.1
20260505190535 11 0.0 0.0 0.00 0.00 0.00 66 1009.0
20260505190033 11 78 0.0 1.6 0.00 0.00 0.00 65 1008.9
20260505185531 11 0.0 0.0 0.00 0.00 0.00 65 1009.0
20260505185029 11 196 1.6 3.2 0.00 0.00 0.00 61 1009.0
20260505184528 11 54 0.0 1.6 0.00 0.00 0.00 60 1008.8
20260505184026 11 0.0 0.0 0.00 0.00 0.00 64 1008.8
20260505183524 11 182 0.0 1.6 0.00 0.00 0.00 63 1008.8
20260505183042 12 181 0.0 3.2 0.00 0.00 0.00 61 1008.7
20260505182520 12 339 0.0 4.8 0.00 0.00 0.00 58 1008.7
20260505182019 12 187 0.0 1.6 0.00 0.00 0.00 57 1008.6
20260505181519 13 21 3.2 12.9 0.00 0.00 0.00 54 1008.5
20260505181015 13 6 3.2 9.7 0.00 0.00 0.00 54 1008.7
20260505180534 13 357 3.2 12.9 0.00 0.00 0.00 53 1008.6
20260505180032 13 360 6.4 16.1 0.00 0.00 0.00 53 1008.6
20260505175533 13 19 4.8 14.5 0.00 0.00 0.00 53 1008.7
20260505175030 13 2 3.2 11.3 0.00 0.00 0.00 52 1008.5
20260505174527 13 13 6.4 14.5 0.00 0.00 0.00 52 1008.6